Volver al catálogo

STARLINK-36432

ActivoComunicacionesVLEO
NORAD 67342·PAYLOAD·🇺🇸 United States

Lanzado Jan 9, 2026 desde Cape Canaveral Space Force Station

Loading…

Próximos Pases (próximas 24 horas)

TLE

ActualizadoSource: CelesTrak SupGP

Época: Sep 14, 2026, 22:57 UTC

1 67342C 26003J   26257.95673611  .00026530  00000+0  96066-3 0  2575
2 67342  43.0003 237.8453 0001337 275.1709  90.2356 15.27574241    15

Sigue STARLINK-36432 en tiempo real con AllMySat

Download on the App Store